This is the latest recevied weather packets stored in our database for station/object DL7KAW-10. If no packets are shown the sender has not sent any weather packets the latest 10 day(s).
| Time | Temp. | Humidity | Pressure | Rain* | Wind** | Luminosity | Snow |
|---|---|---|---|---|---|---|---|
| 1788388325 | 20.56° C | 64% | 1018.5 hPa | - | - | - | - |
| 1788387425 | 20.56° C | 65% | 1018.6 hPa | - | - | - | - |
| 1788386524 | 20.56° C | 64% | 1018.7 hPa | - | - | - | - |
| 1788385624 | 20.56° C | 64% | 1018.8 hPa | - | - | - | - |
| 1788384724 | 20.56° C | 64% | 1018.8 hPa | - | - | - | - |
| 1788383824 | 20.56° C | 65% | 1018.8 hPa | - | - | - | - |
| 1788382924 | 20.56° C | 64% | 1018.7 hPa | - | - | - | - |
| 1788382024 | 20.56° C | 63% | 1018.6 hPa | - | - | - | - |
| 1788381124 | 20.56° C | 64% | 1018.7 hPa | - | - | - | - |
| 1788380224 | 20.56° C | 63% | 1018.7 hPa | - | - | - | - |
| 1788379323 | 20.56° C | 63% | 1018.5 hPa | - | - | - | - |
| 1788378423 | 20.56° C | 62% | 1018.6 hPa | - | - | - | - |
| 1788377523 | 20.56° C | 61% | 1018.7 hPa | - | - | - | - |
| 1788376623 | 20° C | 60% | 1018.6 hPa | - | - | - | - |
| 1788375723 | 19.44° C | 59% | 1018.7 hPa | - | - | - | - |
| 1788374823 | 17.78° C | 62% | 1018.8 hPa | - | - | - | - |
| 1788373923 | 20.56° C | 63% | 1018.7 hPa | - | - | - | - |
| 1788373023 | 20.56° C | 61% | 1018.5 hPa | - | - | - | - |
| 1788372123 | 21.11° C | 63% | 1018.5 hPa | - | - | - | - |
| 1788371222 | 21.11° C | 60% | 1018.4 hPa | - | - | - | - |
| 1788370322 | 21.11° C | 67% | 1018.5 hPa | - | - | - | - |
| 1788369422 | 21.11° C | 66% | 1018.5 hPa | - | - | - | - |
| 1788368522 | 21.11° C | 65% | 1018.5 hPa | - | - | - | - |
| 1788367622 | 21.11° C | 65% | 1018.5 hPa | - | - | - | - |
| 1788366722 | 21.11° C | 66% | 1018.5 hPa | - | - | - | - |
* Rain since midnight (hover to see other rain measurements)
** Current wind speed in m/s (hover to see current wind gust speed)